[[{"header":{"parameterUnit":"m.s-1","parameterCategory":1,"la1":30.2991,"la2":30.254,"lo1":-89.0895,"lo2":-89.0444,"dy":0.0017,"dx":0.0017,"nx":28,"ny":28,"refTime":"2024-04-29T21:00:00:Z","depth":0,"parameterNumber":2,"parameterNumberName":"U-component_of_WINDS"},"data":[0,0,0,0,0,0,0,0,0,0,0,0,0,0,0,0,0,0,0,0,0,0,0,0,0,0,0,0,0,0,0,0,0,0,0,0,0,0,0,0,0,0,0,0,0,0,0,0,0,0,0,0,0,0,0,0,0,0,-1.9382,-1.9381,0,-1.9319,-1.9318,-1.9317,-1.9251,-1.925,-1.9249,-1.9248,-1.9182,-1.9181,-1.9181,0,0,0,0,0,0,0,0,0,0,0,0,0,-1.9444,-1.9443,-1.9382,-1.9381,-1.938,-1.9319,-1.9318,-1.9317,-1.9251,-1.925,-1.9249,-1.9248,-1.9183,-1.9182,-1.918,0,0,0,0,0,0,0,0,0,0,0,0,0,-1.9403,-1.9443,-1.9382,-1.934,-1.9335,-1.9319,-1.9318,-1.9317,-1.9251,-1.925,-1.9249,-1.9247,-1.9183,-1.9182,-1.918,-1.92,0,0,-1.9176,-1.9176,0,0,0,0,0,0,0,0,-1.9405,-1.94,-1.9347,-1.9343,-1.9338,-1.9291,-1.9316,-1.9278,-1.9252,-1.9283,-1.9248,-1.9247,-1.922,-1.9215,-1.9206,-1.9197,-1.9194,-1.9176,-1.9175,-1.9175,-1.9174,0,0,0,0,0,0,0,-1.9408,-1.9403,-1.9357,-1.9346,-1.9341,-1.9324,-1.9316,-1.9308,-1.926,-1.928,-1.9275,-1.9269,-1.9217,-1.9208,-1.9204,-1.9193,-1.9176,-1.9175,-1.9174,-1.9174,-1.9198,-1.9199,0,0,0,0,0,0,-1.9417,-1.9405,-1.9359,-1.9355,-1.9369,-1.9324,-1.9316,-1.9308,-1.926,-1.9251,-1.927,-1.9266,-1.9211,-1.9206,-1.9202,-1.9222,-1.9175,-1.9174,-1.9173,-1.9196,-1.9198,-1.9199,0,0,0,0,0,0,-1.9419,-1.9414,-1.9361,-1.9379,-1.9371,-1.9324,-1.9316,-1.9307,-1.9298,-1.9252,-1.9243,-1.927,-1.921,-1.9204,-1.9201,-1.9219,-1.9173,-1.9172,-1.9194,-1.9197,-1.9199,-1.9263,0,0,0,0,0,0,-1.9421,-1.9415,-1.9422,-1.938,-1.937,-1.9362,-1.9317,-1.9307,-1.9296,-1.929,-1.925,-1.9241,-1.9208,-1.9204,-1.92,-1.9216,-1.9171,-1.9193,-1.9195,-1.9198,-1.9259,-1.9267,-1.9274,0,0,0,0,0,-1.9423,-1.9442,-1.9422,-1.9417,-1.9378,-1.9363,-1.9358,-1.9319,-1.9298,-1.9304,-1.9275,-1.9243,-1.9218,-1.9204,-1.9199,-1.9215,-1.9191,-1.9195,-1.9198,-1.9256,-1.9266,-1.9274,0,0,0,0,0,0,-1.9486,-1.9435,-1.9413,-1.9419,-1.9396,-1.9352,-1.9359,-1.9331,-1.9313,-1.9308,-1.9261,-1.9252,-1.9256,-1.9235,-1.9221,-1.9232,-1.92,-1.9202,-1.9246,-1.9255,-1.9262,-1.9267,-1.917,0,0,0,0,0,-1.9501,-1.9494,-1.9449,-1.9458,-1.9448,-1.9406,-1.9398,-1.9371,-1.9345,-1.9335,-1.9305,-1.9281,-1.9268,-1.926,-1.9245,-1.9256,-1.9246,-1.9265,-1.9272,-1.9279,-1.9281,-1.9286,-1.9294,-1.921,-1.921,-1.921,0,0,-1.9531,-1.9502,-1.95,-1.947,-1.9449,-1.9443,-1.9398,-1.9393,-1.9387,-1.9334,-1.933,-1.9308,-1.9278,-1.9282,-1.9283,-1.9265,-1.9303,-1.9283,-1.9288,-1.9287,-1.929,-1.9299,-1.9306,-1.9212,-1.9212,-1.9212,0,0,-1.9582,-1.956,-1.9565,-1.9546,-1.9515,-1.9487,-1.9489,-1.9449,-1.9433,-1.9428,-1.9388,-1.9381,-1.9359,-1.934,-1.9327,-1.9373,-1.9342,-1.9369,-1.9408,-1.9413,-1.942,-1.9426,-1.9442,-1.9449,-1.9372,-1.9372,-1.9372,0,-1.9623,-1.9612,-1.9571,-1.9569,-1.9557,-1.9509,-1.9515,-1.9497,-1.9463,-1.9456,-1.9437,-1.941,-1.9386,-1.9386,-1.9397,-1.9388,-1.9389,-1.9373,-1.9422,-1.9428,-1.9432,-1.9448,-1.9454,-1.9376,-1.9375,-1.9375,-1.9375,0,-1.9664,-1.9657,-1.9665,-1.9634,-1.9623,-1.9625,-1.9585,-1.9578,-1.9552,-1.9527,-1.9523,-1.9494,-1.9473,-1.947,-1.9444,-1.9467,-1.9457,-1.9431,-1.9397,-1.9444,-1.9458,-1.9464,-1.9381,-1.9379,-1.9378,-1.9377,0,0,-1.9752,-1.97,-1.9704,-1.969,-1.9653,-1.9647,-1.9646,-1.9626,-1.9622,-1.9601,-1.9599,-1.9583,-1.9559,-1.9545,-1.9516,-1.9521,-1.956,-1.9494,-1.9493,-1.9508,-1.9584,-1.9604,-1.9611,-1.954,-1.9541,-1.9542,-1.9586,0,-1.9797,-1.9793,-1.9758,-1.9764,-1.9758,-1.9713,-1.9713,-1.969,-1.9667,-1.9657,-1.9631,-1.962,-1.9589,-1.958,-1.9583,-1.9555,-1.9575,-1.9551,-1.9538,-1.9538,-1.9547,-1.9618,-1.9639,-1.9683,-1.9591,-1.9592,-1.9593,0,-1.9848,-1.9831,-1.9838,-1.9802,-1.9798,-1.9798,-1.9778,-1.9769,-1.9743,-1.9726,-1.9711,-1.9679,-1.9676,-1.9645,-1.9641,-1.9626,-1.9619,-1.9604,-1.9605,-1.9602,-1.9568,-1.9618,-1.9695,-1.9702,-1.9601,-1.96,-1.96,0,-1.9912,-1.9891,-1.9892,-1.9881,-1.984,-1.9841,-1.9824,-1.9797,-1.9787,-1.9769,-1.9763,-1.9745,-1.9735,-1.9722,-1.9686,-1.9667,-1.9686,-1.9652,-1.9672,-1.9673,-1.9678,-1.9678,-1.9756,-1.9673,-1.9673,-1.9673,-1.9673,0,-1.9966,-1.9972,-1.9921,-1.9921,-1.9927,-1.9886,-1.9892,-1.9871,-1.9847,-1.9843,-1.9803,-1.98,-1.9753,-1.9745,-1.9717,-1.9719,-1.9714,-1.97,-1.9693,-1.9704,-1.9706,-1.9698,-1.9694,-1.9675,-1.9674,-1.9674,-1.9674,0,-2.0039,-2.0004,-2.0003,-1.9964,-1.9955,-1.996,-1.9927,-1.9926,-1.9901,-1.9896,-1.9893,-1.9852,-1.9841,-1.9804,-1.9783,-1.9764,-1.9774,-1.976,-1.9783,-1.9778,-1.98,-1.9799,-1.9876,-1.9885,-1.9797,-1.9798,-1.9799,0,-2.0075,-2.0079,-2.0041,-2.0036,-2.002,-2.0012,-2.0003,-1.9963,-1.9955,-1.9927,-1.993,-1.9915,-1.9901,-1.9885,-1.9854,-1.9838,-1.9823,-1.9851,-1.982,-1.9831,-1.9823,-1.9824,-1.9824,-1.9858,-1.9859,-1.986,-1.986,0,-2.0144,-2.0127,-2.0116,-2.0099,-2.0089,-2.0073,-2.0055,-2.0053,-2.0009,-2.0002,-1.999,-1.998,-1.9959,-1.9945,-1.9924,-1.9906,-1.9876,-1.9871,-1.9874,-1.9886,-1.9899,-1.9893,-1.9802,-1.9869,-1.9868,-1.9867,-1.9867,-1.9867,-2.02,-2.0201,-2.0175,-2.0164,-2.0147,-2.0131,-2.0129,-2.0104,-2.0093,-2.0073,-2.0051,-2.0042,-2.0016,-1.9986,-1.997,-1.9963,-1.9946,-1.9952,-1.9953,-1.9955,-1.9961,-1.9901,-1.9959,-1.9958,-1.9958,-1.9958,-1.9958,0,-2.0267,-2.0248,-2.0238,-2.0215,-2.0206,-2.018,-2.0159,-2.0153,-2.0146,-2.0125,-2.0113,-2.01,-2.0087,-2.0055,-2.0039,-2.0039,-2.0025,-2.0036,-2.0036,-2.0032,-1.9976,-1.9974,-2.0048,-2.0048,-2.0048,-2.0048,-2.0048,-2.0048,-2.0301,-2.0302,-2.0283,-2.0275,-2.0256,-2.0248,-2.0238,-2.0224,-2.0207,-2.0195,-2.0184,-2.0164,-2.0139,-2.0121,-2.0108,-2.0099,-2.0095,-2.0111,-2.0097,-2.0045,-2.0036,-2.0028,-2.0026,-2.011,-2.011,-2.0155,-2.0155,-2.0155]},{"header":{"parameterUnit":"m.s-1","parameterCategory":1,"la1":30.2991,"la2":30.254,"lo1":-89.0895,"lo2":-89.0444,"dy":0.0017,"dx":0.0017,"nx":28,"ny":28,"refTime":"2024-04-29T21:00:00:Z","depth":0,"parameterNumber":3,"parameterNumberName":"V-component_of_WINDS"},"data":[0,0,0,0,0,0,0,0,0,0,0,0,0,0,0,0,0,0,0,0,0,0,0,0,0,0,0,0,0,0,0,0,0,0,0,0,0,0,0,0,0,0,0,0,0,0,0,0,0,0,0,0,0,0,0,0,0,0,2.5631,2.5631,0,2.5666,2.5666,2.5666,2.5731,2.5732,2.5734,2.5735,2.5766,2.5765,2.5765,0,0,0,0,0,0,0,0,0,0,0,0,0,2.5618,2.5618,2.5631,2.5632,2.5632,2.5665,2.5666,2.5666,2.5731,2.5732,2.5734,2.5735,2.5766,2.5765,2.5765,0,0,0,0,0,0,0,0,0,0,0,0,0,2.5635,2.5618,2.5631,2.5668,2.5672,2.5665,2.5666,2.5667,2.5731,2.5733,2.5734,2.5736,2.5766,2.5765,2.5765,2.5723,0,0,2.5763,2.5763,0,0,0,0,0,0,0,0,2.5634,2.5635,2.5662,2.5666,2.567,2.5696,2.5673,2.5685,2.573,2.5708,2.5735,2.5737,2.5741,2.5742,2.5744,2.5725,2.5726,2.5763,2.5763,2.5762,2.5762,0,0,0,0,0,0,0,2.5633,2.5634,2.5645,2.5663,2.5667,2.5682,2.5687,2.5675,2.5713,2.571,2.5715,2.5719,2.5743,2.5745,2.5746,2.5726,2.5763,2.5763,2.5762,2.5762,2.5674,2.5672,0,0,0,0,0,0,2.5627,2.5633,2.5644,2.5646,2.5656,2.5681,2.5686,2.5686,2.5713,2.572,2.5717,2.5721,2.5745,2.5746,2.5747,2.57,2.5762,2.5762,2.5762,2.5676,2.5674,2.5672,0,0,0,0,0,0,2.5626,2.5627,2.5642,2.5641,2.5644,2.5679,2.5678,2.5685,2.5687,2.5719,2.5725,2.5712,2.5746,2.5748,2.5729,2.5702,2.5762,2.5761,2.5679,2.5676,2.5673,2.5605,0,0,0,0,0,0,2.5625,2.5626,2.5612,2.564,2.5644,2.5624,2.5677,2.5685,2.5687,2.5693,2.5716,2.5721,2.5748,2.5729,2.5728,2.5702,2.5761,2.5681,2.5677,2.5674,2.561,2.56,2.5592,0,0,0,0,0,2.5625,2.559,2.561,2.5611,2.5626,2.5623,2.5625,2.5657,2.5684,2.5669,2.5689,2.572,2.5705,2.5727,2.5726,2.5699,2.5683,2.5678,2.5674,2.5614,2.5602,2.5592,0,0,0,0,0,0,2.5556,2.5594,2.5617,2.5591,2.5603,2.5634,2.5616,2.5644,2.5647,2.5653,2.5692,2.5697,2.5673,2.5685,2.5708,2.5661,2.5699,2.5694,2.5654,2.5643,2.5634,2.5631,2.576,0,0,0,0,0,2.5538,2.5533,2.5567,2.554,2.5546,2.5579,2.5579,2.5604,2.5617,2.5622,2.5641,2.5652,2.565,2.5647,2.5647,2.5613,2.5618,2.5594,2.5585,2.5578,2.5572,2.5555,2.5545,2.5657,2.5657,2.5657,0,0,2.55,2.5521,2.5515,2.5527,2.5539,2.5532,2.5583,2.5574,2.5569,2.562,2.5604,2.5618,2.5633,2.5606,2.5596,2.5615,2.5543,2.5572,2.5566,2.5565,2.5549,2.5539,2.5529,2.5654,2.5655,2.5655,0,0,2.5427,2.5443,2.5423,2.5435,2.5454,2.5477,2.5472,2.5498,2.551,2.5495,2.5534,2.5528,2.5523,2.5532,2.5536,2.5469,2.5497,2.5467,2.542,2.5402,2.5393,2.5386,2.5361,2.5352,2.5462,2.5462,2.5462,0,2.5377,2.537,2.5408,2.5397,2.5401,2.545,2.5429,2.5438,2.5455,2.5456,2.5479,2.5475,2.5488,2.5464,2.5448,2.5449,2.5444,2.5464,2.5392,2.5385,2.5378,2.5355,2.5345,2.5458,2.5459,2.5459,2.546,0,2.5307,2.5302,2.5283,2.53,2.5302,2.5286,2.5321,2.5318,2.5343,2.5363,2.5347,2.5365,2.5369,2.5366,2.5389,2.5345,2.5357,2.5385,2.5424,2.5363,2.5342,2.5333,2.5453,2.5454,2.5456,2.5456,0,0,2.519,2.5231,2.5223,2.5232,2.5257,2.5252,2.5238,2.5244,2.5241,2.5251,2.524,2.5235,2.5262,2.5266,2.5291,2.5276,2.5221,2.5307,2.5308,2.5289,2.5173,2.5151,2.514,2.5241,2.5239,2.5238,2.5172,0,2.5123,2.5102,2.5137,2.5108,2.5103,2.515,2.5137,2.5151,2.517,2.5167,2.5188,2.5184,2.522,2.5223,2.521,2.523,2.5198,2.5236,2.5229,2.5228,2.5223,2.5129,2.5106,2.5042,2.5164,2.5162,2.5161,0,2.504,2.5049,2.5019,2.5047,2.5046,2.5035,2.5043,2.5041,2.5057,2.5072,2.5077,2.5107,2.5095,2.5134,2.5116,2.5141,2.514,2.515,2.5148,2.5148,2.519,2.5125,2.5022,2.5012,2.5149,2.515,2.5151,0,2.4957,2.4961,2.4944,2.495,2.4982,2.4973,2.4985,2.5004,2.5005,2.5012,2.5013,2.5018,2.5021,2.5023,2.5054,2.5079,2.5032,2.5073,2.5043,2.5042,2.5029,2.5029,2.4924,2.5031,2.5031,2.5031,2.5031,0,2.4877,2.4857,2.4907,2.4897,2.4876,2.4916,2.4893,2.491,2.4926,2.4919,2.496,2.4952,2.4993,2.499,2.5013,2.4995,2.4995,2.5006,2.5012,2.5002,2.5,2.5001,2.5006,2.5028,2.5029,2.5029,2.503,0,2.478,2.4813,2.4798,2.483,2.4837,2.482,2.4847,2.4838,2.4861,2.4851,2.4851,2.4885,2.4883,2.4915,2.4918,2.4934,2.4904,2.4919,2.4899,2.4903,2.487,2.4873,2.4761,2.4748,2.4863,2.4862,2.4861,0,2.4726,2.4712,2.4743,2.4742,2.4754,2.4751,2.4754,2.4792,2.4793,2.4811,2.4799,2.4801,2.4804,2.4798,2.4823,2.4826,2.484,2.4801,2.484,2.483,2.4838,2.4838,2.4837,2.4792,2.479,2.4789,2.4788,0,2.4626,2.4644,2.4647,2.4655,2.4658,2.4666,2.4676,2.4673,2.4715,2.4713,2.4713,2.4715,2.472,2.4721,2.4728,2.474,2.477,2.4776,2.4769,2.4757,2.4746,2.4751,2.4875,2.4778,2.4779,2.4779,2.478,2.478,2.4549,2.4539,2.456,2.4562,2.4574,2.4583,2.4577,2.4599,2.46,2.4608,2.463,2.4626,2.4642,2.4656,2.4665,2.4661,2.468,2.467,2.4667,2.4664,2.4658,2.4748,2.4663,2.4663,2.4664,2.4664,2.4664,0,2.4451,2.4468,2.4469,2.4484,2.4485,2.4516,2.4529,2.4528,2.4524,2.4537,2.454,2.4539,2.4541,2.4566,2.457,2.4561,2.4575,2.4561,2.4561,2.4564,2.4641,2.4646,2.455,2.455,2.455,2.455,2.455,2.455,2.4401,2.4385,2.4405,2.4396,2.4413,2.441,2.4415,2.4423,2.4435,2.4432,2.4434,2.4451,2.4469,2.4475,2.4477,2.4484,2.4483,2.4464,2.4476,2.4547,2.4558,2.4569,2.4574,2.4464,2.4464,2.4399,2.4398,2.4398]}]]